• In Russia
  • List of Countries
  • For 7 days
  • Water Temperature
  • Satellite Maps
  • Weather Map
  • Weather Widgets
  • user-avatar
    Login

    Hourly Weather Hajduhadhaz

    Today, 19 January, Friday

    Time Temperature Precipitation Wind Pressure Humidity
    00:00 -1°C° 0.2 mm 7 mps 740 mmHg 70%
    01:00 -1°C° 0.2 mm 8 mps 740 mmHg 71%
    02:00 -1°C° 0.3 mm 7 mps 740 mmHg 75%
    03:00 -1°C° 0.3 mm 7 mps 740 mmHg 79%
    04:00 -1°C° 0.3 mm 7 mps 740 mmHg 83%
    05:00 -1°C° 0 mm 6 mps 740 mmHg 85%
    06:00 -1°C° 0 mm 6 mps 740 mmHg 86%
    07:00 0°C° 0 mm 5 mps 741 mmHg 88%
    08:00 0°C° 0 mm 5 mps 741 mmHg 87%
    09:00 +1°C° 0 mm 5 mps 742 mmHg 85%
    10:00 +1°C° 0 mm 5 mps 742 mmHg 84%
    11:00 +1°C° 0 mm 5 mps 742 mmHg 83%
    12:00 +2°C° 0 mm 5 mps 742 mmHg 82%
    13:00 +2°C° 0 mm 5 mps 742 mmHg 82%
    14:00 +2°C° 0.2 mm 5 mps 743 mmHg 84%
    15:00 +1°C° 0.2 mm 4 mps 743 mmHg 87%
    16:00 +2°C° 0.2 mm 3 mps 743 mmHg 90%
    17:00 +2°C° 0.2 mm 3 mps 743 mmHg 90%
    18:00 +1°C° 0.2 mm 3 mps 744 mmHg 91%
    19:00 +1°C° 0.2 mm 3 mps 744 mmHg 91%
    20:00 +1°C° 0.1 mm 3 mps 744 mmHg 91%
    21:00 +1°C° 0.1 mm 3 mps 744 mmHg 91%
    22:00 +1°C° 0.1 mm 3 mps 744 mmHg 91%
    23:00 +1°C° 0 mm 2 mps 745 mmHg 92%

    Tomorrow, 20 January, Saturday

    Time Temperature Precipitation Wind Pressure Humidity
    00:00 +1°C° 0 mm 2 mps 745 mmHg 92%
    01:00 +1°C° 0 mm 2 mps 745 mmHg 93%
    02:00 +1°C° 0 mm 2 mps 745 mmHg 93%
    03:00 -1°C° 0 mm 2 mps 745 mmHg 93%
    04:00 -1°C° 0 mm 2 mps 745 mmHg 93%
    05:00 -1°C° 0 mm 2 mps 745 mmHg 93%
    06:00 -2°C° 0 mm 2 mps 745 mmHg 93%
    07:00 -2°C° 0 mm 2 mps 745 mmHg 93%
    08:00 -1°C° 0 mm 2 mps 745 mmHg 89%
    09:00 +1°C° 0 mm 2 mps 745 mmHg 86%
    10:00 +1°C° 0 mm 2 mps 745 mmHg 83%
    11:00 +2°C° 0 mm 2 mps 745 mmHg 79%
    12:00 +2°C° 0 mm 3 mps 745 mmHg 76%
    13:00 +2°C° 0 mm 3 mps 744 mmHg 73%
    14:00 +3°C° 0 mm 2 mps 744 mmHg 75%
    15:00 +2°C° 0 mm 2 mps 744 mmHg 78%
    16:00 +2°C° 0 mm 2 mps 744 mmHg 80%
    17:00 +1°C° 0 mm 2 mps 744 mmHg 81%
    18:00 0°C° 0 mm 3 mps 744 mmHg 83%
    19:00 -1°C° 0 mm 3 mps 744 mmHg 84%
    20:00 -1°C° 0 mm 3 mps 744 mmHg 84%
    21:00 0°C° 0 mm 3 mps 744 mmHg 84%
    22:00 -1°C° 0 mm 4 mps 744 mmHg 84%
    23:00 -1°C° 0 mm 3 mps 744 mmHg 86%

    Day after tomorrow, 21 January, Sunday

    Time Temperature Precipitation Wind Pressure Humidity
    00:00 -1°C° 0 mm 3 mps 744 mmHg 87%
    01:00 -1°C° 0 mm 3 mps 743 mmHg 89%
    02:00 -1°C° 0 mm 3 mps 743 mmHg 88%
    03:00 -1°C° 0 mm 2 mps 743 mmHg 87%
    04:00 -1°C° 0 mm 2 mps 743 mmHg 86%
    05:00 -1°C° 0 mm 2 mps 743 mmHg 84%
    06:00 -1°C° 0 mm 3 mps 743 mmHg 83%
    07:00 -1°C° 0 mm 3 mps 743 mmHg 81%
    08:00 0°C° 0 mm 3 mps 743 mmHg 79%
    09:00 -1°C° 0 mm 4 mps 743 mmHg 77%
    10:00 -1°C° 0 mm 4 mps 743 mmHg 75%
    11:00 0°C° 0.1 mm 4 mps 743 mmHg 75%
    12:00 0°C° 0.1 mm 4 mps 743 mmHg 75%
    13:00 0°C° 0.1 mm 4 mps 743 mmHg 76%
    14:00 0°C° 0.1 mm 4 mps 743 mmHg 79%
    15:00 -1°C° 0.1 mm 4 mps 743 mmHg 83%
    16:00 -1°C° 0.1 mm 4 mps 744 mmHg 87%
    17:00 -1°C° 0.1 mm 5 mps 744 mmHg 85%
    18:00 -1°C° 0.1 mm 5 mps 745 mmHg 84%
    19:00 -1°C° 0.1 mm 5 mps 746 mmHg 83%
    20:00 -2°C° 0 mm 5 mps 746 mmHg 82%
    21:00 -2°C° 0 mm 5 mps 746 mmHg 81%
    22:00 -2°C° 0 mm 5 mps 747 mmHg 79%
    23:00 -4°C° 0 mm 5 mps 747 mmHg 79%

    22 January, Monday

    Time Temperature Precipitation Wind Pressure Humidity
    00:00 -4°C° 0 mm 5 mps 747 mmHg 79%
    01:00 -4°C° 0 mm 5 mps 747 mmHg 79%
    02:00 -4°C° 0 mm 5 mps 747 mmHg 79%
    03:00 -5°C° 0 mm 5 mps 748 mmHg 79%
    04:00 -5°C° 0 mm 5 mps 748 mmHg 79%
    05:00 -4°C° 0 mm 4 mps 748 mmHg 79%
    06:00 -4°C° 0 mm 4 mps 749 mmHg 80%
    07:00 -4°C° 0 mm 4 mps 749 mmHg 81%
    08:00 -4°C° 0 mm 4 mps 749 mmHg 77%
    09:00 -2°C° 0 mm 3 mps 750 mmHg 74%
    10:00 -1°C° 0 mm 3 mps 750 mmHg 70%
    11:00 0°C° 0 mm 3 mps 750 mmHg 68%
    12:00 0°C° 0 mm 3 mps 750 mmHg 66%
    13:00 +2°C° 0 mm 2 mps 750 mmHg 64%
    14:00 +1°C° 0 mm 2 mps 750 mmHg 67%
    15:00 +1°C° 0 mm 1 mps 750 mmHg 71%
    16:00 0°C° 0 mm 0 mps 750 mmHg 74%
    17:00 +1°C° 0 mm 1 mps 750 mmHg 75%
    18:00 0°C° 0 mm 1 mps 751 mmHg 76%
    19:00 0°C° 0 mm 1 mps 751 mmHg 77%
    20:00 0°C° 0 mm 1 mps 751 mmHg 77%
    21:00 0°C° 0 mm 1 mps 751 mmHg 78%
    22:00 -2°C° 0 mm 2 mps 750 mmHg 78%
    23:00 -2°C° 0 mm 2 mps 750 mmHg 78%

    23 January, Tuesday

    Time Temperature Precipitation Wind Pressure Humidity
    00:00 -2°C° 0 mm 2 mps 751 mmHg 78%
    01:00 -2°C° 0 mm 2 mps 751 mmHg 78%
    02:00 -2°C° 0 mm 2 mps 750 mmHg 79%
    03:00 -2°C° 0 mm 2 mps 750 mmHg 80%
    04:00 -2°C° 0 mm 2 mps 750 mmHg 81%
    05:00 -2°C° 0.3 mm 2 mps 750 mmHg 84%
    06:00 -2°C° 0.3 mm 2 mps 750 mmHg 86%
    07:00 -2°C° 0.3 mm 2 mps 750 mmHg 89%
    08:00 -2°C° 0.2 mm 2 mps 751 mmHg 88%
    09:00 -1°C° 0.2 mm 2 mps 751 mmHg 88%
    10:00 -1°C° 0.2 mm 2 mps 751 mmHg 87%
    11:00 -1°C° 0 mm 2 mps 752 mmHg 84%
    12:00 +1°C° 0 mm 2 mps 752 mmHg 81%
    13:00 +2°C° 0 mm 1 mps 752 mmHg 77%
    14:00 +2°C° 0 mm 1 mps 752 mmHg 80%
    15:00 +1°C° 0 mm 1 mps 753 mmHg 82%
    16:00 +1°C° 0 mm 1 mps 753 mmHg 84%
    17:00 0°C° 0 mm 0 mps 754 mmHg 86%
    18:00 0°C° 0 mm 0 mps 754 mmHg 87%
    19:00 -1°C° 0 mm 0 mps 754 mmHg 88%
    20:00 0°C° 0 mm 1 mps 754 mmHg 89%
    21:00 0°C° 0 mm 1 mps 754 mmHg 90%
    22:00 0°C° 0 mm 1 mps 755 mmHg 90%
    23:00 -2°C° 0.1 mm 2 mps 755 mmHg 91%

    24 January, Wednesday

    Time Temperature Precipitation Wind Pressure Humidity
    00:00 -2°C° 0.1 mm 2 mps 755 mmHg 93%
    01:00 -2°C° 0.1 mm 2 mps 755 mmHg 94%
    02:00 -2°C° 0.3 mm 2 mps 755 mmHg 94%
    03:00 -2°C° 0.3 mm 2 mps 755 mmHg 95%
    04:00 -2°C° 0.3 mm 2 mps 755 mmHg 95%
    05:00 0°C° 0.1 mm 1 mps 755 mmHg 95%
    06:00 0°C° 0.1 mm 1 mps 755 mmHg 95%
    07:00 +1°C° 0.1 mm 1 mps 756 mmHg 95%
    08:00 +1°C° 0 mm 1 mps 756 mmHg 94%
    09:00 +1°C° 0 mm 1 mps 757 mmHg 92%
    10:00 +2°C° 0 mm 1 mps 757 mmHg 91%
    11:00 +2°C° 0 mm 1 mps 757 mmHg 89%
    12:00 +3°C° 0 mm 1 mps 757 mmHg 87%
    13:00 +3°C° 0 mm 1 mps 758 mmHg 85%
    14:00 +3°C° 0 mm 1 mps 758 mmHg 87%
    15:00 +2°C° 0 mm 1 mps 758 mmHg 89%
    16:00 +2°C° 0 mm 1 mps 758 mmHg 91%
    17:00 -1°C° 0 mm 2 mps 758 mmHg 92%
    18:00 -1°C° 0 mm 2 mps 759 mmHg 92%
    19:00 -2°C° 0 mm 2 mps 759 mmHg 93%
    20:00 0°C° 0 mm 1 mps 759 mmHg 93%
    21:00 0°C° 0 mm 1 mps 760 mmHg 93%
    22:00 0°C° 0 mm 1 mps 760 mmHg 93%
    23:00 0°C° 0 mm 1 mps 760 mmHg 93%
    Show more